Location: Boiro
(42.6475°N, 8.8834°W)
Time: 00:55:50
(UTC+01:00)

S-56A Canister/Altair - Pass Details

Date: 30 November 2021
Orbit: 634 x 2499 km, 38.9° (Epoch: 26 January)

Event Time Altitude Azimuth Distance (km) Brightness Sun altitude
Exits shadow 06:33:46 44° 208° (SSW) 946 7.8 -23.5°
Maximum altitude 06:34:06 44° 196° (SSW) 927 7.8 -23.5°
Drops below altitude 10° 06:38:19 10° 123° (ESE) 2,009 10.6 -22.7°
Sets 06:40:37 0° 117° (ESE) 2,921 11.8 -22.3°
